Location: Orson Pratt Observatory
(40.2472°N, 111.6506°W)
Time: 10:46:49

Humanity Star - Visible Passes

Search period start: 19 March 2018 00:00
Search period end: 29 March 2018 00:00
Orbit: 243 x 294 km, 82.9° (Epoch: 19 March)

Date Brightness Start Highest point End Pass type
(mag) Time Alt. Az. Time Alt. Az. Time Alt. Az.
19 Mar 4.3 06:46:59 10° NNW 06:49:20 53° W 06:51:42 10° S visible
20 Mar 4.5 06:43:04 10° NNW 06:45:14 41° W 06:47:25 10° SSW visible
21 Mar 4.0 06:31:25 10° NNW 06:33:22 46° W 06:35:20 10° S visible
